DECAYED
Showing default

FLOCK 4Q 19, 58278 (Decayed)

Orbit data source: Space-Track

FLOCK 4Q 19, 58278 was a payload satellite owned by Planet (US) in LEO that was launched on Sat, 11 Nov 2023 UTC via an FALCON 9 launch vehicle from the Air Force Western Test Range (AFWTR). Payload-class satellites include a variety of spacecraft equipped with specific instruments for various scientific and technological missions. These include communications satellites like Starlink; space stations such as the ISS; scientific satellites like the Hubble; Earth observation satellites from companies like Planet Labs, Umbra, and HawkEye 360; GPS; miniature CubeSats for education and research; and military/defense satellites.

Not visible in the next 10 days
Identifier
58278, 2023-174Y
Orbit
Decayed
Country
Flag of USUS
Related business
Manufacturer
Planet
Mission
Decayed Commercial Imaging
Bus & Motor
CUBESAT 3U, Unknown motor
Mass
5.7 kg wet, 5.7 kg dry
Launch date (UTC)
2023-11-11 (3 years ago)
Launch vehicle
FALCON 9
Launch site
Air Force Western Test Range (AFWTR)
Object type
Payload
Rocket body
Debris
Shape & HBR
Box + 2 Pan, 1.0 m
Radar Cross Section
0.072 m², Medium (>0.1 m² and < 1m²)

Expand to show TLE details & history
Last TLE update: 1 year ago

TLE from 1 year ago
0 FLOCK 4Q 19
1 58278U 23174Y   25146.51544426  .06375528  24997-5  10664-2 0  9997
2 58278  97.3791 230.7448 0017758 274.4464  85.4802 16.32795003 86439
Epoch: 2025-05-26T12:22Z
TLE epoch observation values (Epoch: 2025-05-26T12:22:14.384Z)
Latitude
-0.00008°
Longitude
160.85839°
Altitude
187.384 km
Speed
7.794 km/s
True Right ascension
15h 22m 58s
True Declination
0° 00' 00"
Sunlit
Object was in full shadow at epoch
Visualization orbit readout
Latitude
Unknown
Longitude
Unknown
Altitude
Unknown
Speed
Unknown
Apparent Right ascension
Unknown
Apparent Declination
Unknown
Sunlit
N/A
Visualization observer readout
Local Sidereal Time
21:51:57
Azimuth
Unknown
Elevation
Unknown
Doppler factor
Unknown
Orbital elements
Apogee altitude
193.504 km
Perigee altitude
170.206 km
Semi-major axis
6,559.992 km
Eccentricity
0.00178
Inclination
97.3791°
RAAN
230.7448°
Arg. of periapsis
274.4464°
True anomaly
85.68309°
Mean anomaly
85.4802°
Eccentric anomaly
85.58164°
Mean motion
4.08496 °/min
Orbital period
88.13 mins
BSTAR
0.0010664
Loading maneuver chart data...
Computing Atmospheric mass density...

Documentation

Showing up to 5 results
|